Wind_Speed
0 2 3 8 10 12 14 11 10 16 21 19 17 17 17 15 17 17 17 17 17 17 17 24 19 23 22 21 20 20 20 20 21 21 22 21 19 16 14 14 15 15 15 18
1 2 4 11 14 14 15 16 20 19 19 15 12 14 16 16 18 18 18 19 19 19 21 23 26 27 27 28 28 25 24 24 23 22 23 24 22 20 19 18 16 16 16 16
3 5 4 10 19 19 17 13 12 13 11 10 13 14 16 16 18 19 19 20 20 21 23 28 30 30 29 29 30 29 29 29 28 25 23 24 23 23 21 21 19 18 16 15
4 6 7 3 4 4 11 8 11 12 11 10 10 12 15 16 19 19 18 20 22 23 29 32 32 32 32 31 31 30 30 29 31 26 24 24 23 23 21 19 19 18 17 15
5 10 4 10 10 8 12 10 9 8 5 6 10 16 22 18 14 19 21 23 29 33 34 35 36 36 35 33 30 28 27 26 24 23 23 24 23 21 19 17 18 17 16 13
5 5 7 9 11 4 3 10 9 2 6 11 14 13 15 20 20 21 26 28 29 32 34 34 34 34 34 33 32 30 29 25 23 21 21 20 17 15 15 15 17 16 18 16
9 7 4 8 9 9 6 3 2 6 10 12 13 11 19 21 20 25 27 29 30 31 31 31 32 32 33 33 31 30 28 26 25 21 19 17 16 14 15 17 18 17 19 16
8 8 10 14 12 7 4 3 7 8 11 13 14 16 18 19 20 21 22 27 29 29 29 30 31 31 32 30 32 30 25 24 25 23 19 16 15 15 16 14 16 17 18 15
9 5 6 15 6 1 2 6 6 9 10 12 15 17 18 17 19 19 25 28 29 29 31 31 30 30 31 28 28 28 22 23 23 21 18 15 15 17 15 14 15 14 13 13
6 9 9 9 6 4 2 6 7 8 9 12 15 16 16 17 18 18 25 27 29 28 28 29 31 30 30 29 27 23 24 27 23 19 17 18 16 15 14 13 13 13 13 13
8 7 6 9 10 4 4 5 6 8 10 11 13 14 14 15 17 20 23 27 28 26 27 29 31 28 27 26 24 23 19 21 18 17 17 14 14 15 15 16 16 15 17 17
7 8 8 5 4 3 5 4 6 8 10 9 10 12 14 15 20 23 25 28 26 27 28 29 26 25 23 21 20 19 19 13 12 11 9 11 11 12 12 13 14 15 17 19
11 5 6 2 3 5 4 3 5 7 6 9 12 14 16 15 21 25 25 27 27 28 28 26 23 22 22 19 18 18 16 11 8 7 8 8 9 9 8 6 6 8 10 13
9 8 8 8 5 7 4 6 5 5 5 7 10 13 15 17 21 21 22 26 28 27 25 23 23 22 22 19 18 13 12 10 6 6 6 7 7 6 7 6 3 0 0 6
10 11 8 5 6 7 8 6 2 4 5 7 9 11 14 16 18 20 25 26 27 25 22 22 21 21 24 19 15 11 8 6 5 5 5 4 3 2 1 1 1 3 5 6
13 10 9 10 9 9 8 4 3 4 5 6 9 12 15 17 19 21 23 25 24 21 25 22 21 24 27 21 15 10 7 6 3 4 3 2 2 2 2 3 4 6 9 15
11 13 13 11 10 9 5 4 4 4 4 5 7 10 13 16 18 19 23 24 23 22 21 21 24 25 25 21 18 13 8 5 4 4 3 3 3 4 4 5 7 9 12 17
12 9 8 8 7 7 6 6 6 5 3 4 5 8 10 11 11 18 22 24 22 20 17 26 25 27 23 20 18 16 11 7 5 5 4 4 5 6 6 7 10 12 14 16
11 9 8 8 9 8 8 8 9 7 5 5 6 7 9 11 13 17 20 19 17 18 24 29 30 25 21 19 19 16 12 8 7 6 6 6 7 8 8 9 11 12 14 14
10 12 12 12 12 13 11 12 11 10 9 9 9 9 9 10 12 14 17 17 15 18 25 28 28 25 23 20 19 17 13 11 9 8 8 9 9 10 10 11 12 13 14 14
12 12 12 13 14 15 17 15 14 13 14 14 12 12 10 11 12 11 14 13 20 21 26 26 25 23 23 21 20 18 15 13 10 9 10 11 10 11 12 13 14 14 15 14
9 8 9 12 13 14 17 20 18 17 15 14 14 13 10 12 12 13 13 16 21 25 24 25 25 25 28 27 19 18 15 14 12 10 11 12 13 14 14 15 15 15 15 15
7 10 13 13 14 18 17 18 21 21 18 16 14 12 11 10 11 13 11 20 22 22 24 24 25 27 28 27 21 19 17 15 14 12 13 15 15 15 16 17 17 16 16 17
10 11 12 14 14 13 12 17 17 18 18 14 12 10 8 10 13 14 16 18 21 23 23 23 25 27 28 24 21 19 18 16 16 15 14 15 16 17 17 19 18 18 18 19
7 7 7 7 7 9 13 12 12 12 12 9 6 5 6 9 12 16 17 19 20 21 22 23 23 25 23 23 22 20 19 17 16 16 16 17 17 18 19 20 19 20 19 20
8 8 9 8 8 8 9 9 8 5 5 4 5 7 10 11 13 15 16 18 19 20 21 22 21 23 23 23 23 22 20 17 16 16 17 17 19 19 21 22 22 23 23 23
9 6 9 7 5 5 5 5 6 6 7 8 11 12 12 13 15 16 17 18 19 20 20 21 21 22 23 23 25 22 20 19 19 17 18 19 21 21 23 23 23 24 24 25
Wind_Direction
112 106 230 238 205 206 208 230 247 264 273 292 307 310 309 310 313 312 307 308 318 314 315 309 312 315 310 310 309 311 310 311 308 312 315 315 310 303 299 299 297 294 288 284
29 315 276 252 236 237 232 245 254 265 273 290 302 298 299 311 313 311 313 314 310 309 312 308 305 303 305 303 301 302 301 299 300 300 302 305 307 303 303 303 298 293 286 279
208 192 223 261 234 227 228 235 249 253 279 307 295 304 304 313 303 305 306 301 301 302 301 300 299 300 301 302 298 296 295 293 292 289 289 294 297 299 299 300 297 290 285 278
167 160 236 92 80 185 212 223 246 258 272 293 311 301 295 293 292 292 299 302 301 299 298 297 297 297 297 295 293 290 288 289 289 283 283 291 295 292 291 290 288 286 282 279
190 213 326 187 203 191 202 239 255 274 304 293 299 302 287 286 323 319 307 300 297 297 296 296 295 295 292 288 289 292 290 293 284 285 286 287 287 286 283 284 282 278 278 279
179 216 224 118 134 148 182 256 131 155 287 304 308 295 296 328 319 304 297 296 298 299 300 299 297 298 292 289 286 281 283 287 294 293 283 281 283 281 280 278 280 277 276 281
197 228 252 176 156 156 214 108 198 309 302 300 294 297 307 308 306 308 308 306 306 301 298 298 300 302 296 290 284 283 287 287 287 283 278 277 281 277 278 277 275 276 279 277
199 217 244 152 151 201 30 330 308 298 301 299 298 300 299 305 311 317 317 318 313 309 305 303 303 300 294 292 293 288 287 290 283 286 281 277 276 279 281 273 271 270 269 268
193 207 116 173 119 96 302 287 294 301 297 297 302 304 308 311 314 315 317 317 314 306 304 306 305 299 294 292 294 293 292 294 286 285 272 264 265 269 271 265 257 261 249 251
176 197 174 178 240 253 244 292 299 296 303 305 307 307 313 317 316 318 316 317 313 308 303 304 307 301 297 298 292 290 288 286 286 277 275 270 264 263 257 251 251 248 239 232
225 218 204 232 252 233 296 296 291 310 315 311 310 317 321 316 316 315 317 313 315 310 308 309 304 301 297 296 299 293 278 280 277 275 273 271 273 270 260 262 251 245 234 227
222 216 216 172 175 217 253 276 313 313 306 321 329 324 324 324 321 321 321 320 320 316 316 307 304 302 301 300 299 296 286 277 272 266 273 281 276 277 271 273 269 256 249 247
245 202 204 184 230 205 228 278 282 289 318 331 335 331 331 328 325 321 321 325 325 322 317 317 313 309 309 307 300 293 282 286 276 279 283 276 270 269 280 278 285 257 242 237
220 176 214 218 211 190 230 239 249 303 319 336 330 335 335 333 327 321 323 321 323 321 319 323 324 320 331 325 318 306 286 278 288 293 285 278 276 273 271 271 262 62 195 205
203 204 220 184 186 203 215 223 275 307 340 341 338 340 341 334 328 325 324 326 326 325 327 326 327 327 340 343 338 323 304 300 296 288 277 267 251 250 261 213 104 94 112 139
210 207 194 207 211 211 212 207 274 310 332 330 335 344 339 333 329 329 328 332 337 333 329 329 334 333 338 333 327 316 308 292 282 277 241 217 182 168 166 135 119 114 117 124
169 193 204 215 214 212 209 206 228 268 302 321 333 333 333 335 332 333 332 334 332 329 332 343 331 333 329 324 316 303 300 286 258 250 238 206 167 162 159 142 132 127 121 133
199 209 209 195 198 209 216 214 223 242 269 301 312 311 309 315 320 323 327 329 330 336 339 338 333 330 324 319 315 300 285 273 253 236 224 203 175 162 160 147 138 136 134 134
206 209 204 203 204 217 218 222 228 229 232 243 270 276 287 298 312 319 324 326 331 340 339 333 332 330 326 321 318 303 272 256 248 235 219 195 179 168 163 155 149 145 145 146
207 212 215 220 218 219 233 231 224 226 223 229 244 263 279 292 304 313 320 315 323 331 332 332 329 328 325 322 321 310 273 255 238 230 210 205 191 176 174 164 159 156 156 157
220 222 228 228 230 228 229 226 217 224 227 225 233 250 266 290 300 302 311 321 327 332 331 329 329 326 327 321 317 307 280 259 241 224 213 205 193 185 179 172 167 164 163 164
235 237 241 228 225 230 226 229 226 226 226 228 235 244 256 279 294 300 298 298 313 323 326 325 323 320 323 319 306 298 286 261 243 227 215 207 198 190 186 180 174 174 170 169
249 243 249 245 237 239 239 228 230 225 224 229 231 235 245 273 291 302 309 316 315 315 317 316 315 318 317 318 298 292 282 262 242 227 219 208 202 194 186 182 178 176 175 173
290 276 264 270 266 250 247 253 248 246 234 228 229 233 246 280 290 294 300 306 306 310 312 311 312 314 315 310 297 282 276 263 248 234 224 212 203 193 186 180 178 177 176 173
296 294 293 294 279 272 266 267 265 251 237 224 231 251 271 286 287 297 299 301 303 308 309 311 311 313 313 311 305 283 269 259 249 238 222 208 198 192 187 184 182 178 176 178
315 318 320 314 309 321 325 322 302 10 24 340 317 307 302 297 296 297 299 299 303 303 305 308 309 310 309 308 306 297 272 256 244 234 224 211 203 195 189 186 184 182 182 181
300 309 307 298 345 350 360 355 338 334 325 312 300 300 297 298 297 297 299 301 302 302 303 304 306 306 306 306 304 297 283 258 243 233 224 216 206 198 192 188 187 186 184 183
Height
749 751 751 749 755 760 765 770 773 763 757 756 762 766 769 771 768 766 765 764 763 763 761 757 754 754 752 749 747 744 740 736 733 730 726 723 720 718 715 712 709 707 705 701
771 766 765 765 761 761 764 767 763 763 764 761 766 767 767 768 767 765 766 766 764 763 760 757 754 752 749 747 742 739 736 732 729 726 722 719 715 713 710 706 703 702 700 699
773 767 773 771 758 758 762 762 764 764 763 767 767 767 768 770 769 767 765 762 759 757 755 753 750 746 743 740 737 733 729 725 721 719 717 714 711 708 705 702 700 698 696 695
768 773 776 750 756 752 758 763 765 765 764 766 769 771 771 771 768 763 760 759 756 754 750 746 743 740 737 733 728 725 721 717 714 711 708 707 706 704 701 699 697 694 693 691
773 764 745 760 760 764 766 761 760 763 765 771 772 771 764 762 762 763 762 760 755 750 745 740 736 732 728 724 721 718 713 710 706 703 702 701 699 698 697 695 693 691 689 686
772 769 753 738 754 761 764 761 768 770 771 770 771 767 753 759 766 763 760 754 747 742 739 735 729 725 720 716 713 710 707 705 704 701 699 696 695 694 693 691 688 686 683 682
763 761 746 743 758 761 767 757 764 768 768 769 769 767 763 763 761 760 753 747 743 737 732 728 723 719 713 709 705 703 701 700 699 696 694 691 689 688 688 687 685 683 680 677
759 765 761 749 758 760 753 759 763 765 766 767 767 766 763 759 755 750 746 742 737 730 726 723 720 716 710 705 701 697 695 695 693 690 687 686 684 682 682 682 680 678 678 675
742 737 740 745 744 754 758 760 761 764 765 765 764 762 759 755 751 746 743 739 735 730 723 719 716 712 704 699 697 694 691 689 687 685 683 681 679 677 677 677 676 674 674 672
742 741 744 746 749 753 756 760 762 764 764 763 762 760 756 753 749 746 741 737 733 727 720 713 709 704 699 695 691 688 686 683 681 678 677 676 675 673 672 671 670 669 669 668
736 738 744 747 747 751 757 761 762 761 762 761 760 755 754 751 748 744 740 735 729 722 714 709 704 699 693 689 686 682 678 677 675 674 672 671 670 669 668 666 666 665 664 663
733 736 740 741 747 755 758 759 759 761 760 757 755 754 752 749 747 743 738 732 725 718 712 704 698 693 688 684 681 678 674 672 671 670 668 667 666 665 664 662 661 660 660 659
729 735 741 746 750 754 757 758 760 760 757 753 752 752 750 749 747 743 737 729 722 715 708 700 694 689 684 680 676 673 670 669 668 667 666 665 664 663 661 659 658 657 656 656
731 737 742 743 746 752 756 758 758 756 753 751 751 751 749 748 745 740 733 726 719 712 704 698 692 687 682 677 673 670 668 668 667 666 664 664 663 662 661 659 657 657 655 655
730 734 737 742 748 751 754 754 752 750 750 749 750 748 748 746 742 736 729 722 715 708 702 697 692 687 682 676 672 670 668 667 666 665 664 664 663 662 661 660 659 658 658 658
728 732 736 741 743 746 747 746 747 747 747 748 746 745 744 742 738 732 726 720 713 706 702 697 692 687 682 677 673 670 668 667 666 665 664 663 663 663 662 662 661 661 661 663
729 731 734 736 738 740 739 742 744 745 745 744 744 744 742 739 735 728 723 718 713 707 702 698 692 686 681 677 673 670 668 666 665 664 663 663 662 663 664 664 664 665 666 669
724 724 726 732 736 737 737 738 740 740 740 742 742 741 739 737 733 727 722 716 710 705 700 696 690 684 679 675 671 668 666 665 664 663 663 663 662 663 664 665 666 668 670 673
720 723 726 729 731 734 734 734 734 735 735 737 737 736 734 732 729 725 720 715 707 701 697 693 688 682 677 673 669 666 664 662 662 662 661 662 662 663 664 666 667 669 672 675
718 721 723 725 726 728 727 727 728 729 730 731 731 730 727 726 724 720 717 712 706 703 697 691 686 680 675 671 667 664 661 660 660 659 660 660 661 662 664 665 667 670 673 676
714 716 717 719 719 720 721 722 722 722 723 724 724 722 721 720 718 716 712 706 702 699 695 689 684 679 674 670 666 662 659 658 657 657 657 658 659 660 662 664 667 670 673 676
712 713 712 713 713 713 714 714 715 714 715 715 716 716 715 714 712 709 707 704 699 696 692 687 682 677 673 667 663 659 656 655 654 654 654 655 656 657 660 662 665 668 671 675
709 709 709 709 708 706 706 706 706 705 705 706 707 708 708 707 707 703 699 698 695 692 688 683 678 674 669 664 659 655 653 651 651 650 651 651 652 653 656 659 662 665 669 672
706 705 703 703 702 702 700 699 701 701 697 697 700 701 702 701 699 699 696 694 691 687 683 678 674 670 665 659 655 651 649 647 646 646 646 647 648 650 652 655 658 661 665 669
703 701 700 699 698 697 697 696 696 695 694 694 695 697 697 697 697 694 692 690 686 682 678 673 669 665 661 655 651 647 644 642 641 641 641 642 644 645 648 651 654 657 661 665
701 699 698 698 697 696 696 695 693 692 693 693 694 695 694 693 692 690 687 685 681 677 673 669 665 661 656 652 647 643 639 638 637 636 637 637 639 641 643 646 649 653 656 660
699 700 699 697 698 698 698 698 697 695 695 695 693 692 691 689 687 685 682 679 676 672 669 664 660 656 652 648 643 638 634 632 631 631 631 632 634 636 638 641 645 649 652 656